Saint Bonnet de Bellac- Haute Vienne - France
Donnes mto: samedi, 18/08/2012
Date Horaire Temp. E. Hum. E. P.atmo. Pluie Vent Direction Direction Ensoleilleme Solaire P. de rose Temp au vent Rafales
18/08/2012 00:00 24,3 C 60 % 1014,1 hPa 0,0 mm 7,2 km/h (2 Bft) SE 135 0 min 0 W/m 16,0 C 24,3 C 9,0 km/h (2 Bft)
18/08/2012 00:10 23,9 C 61 % 1014,1 hPa 0,0 mm 3,6 km/h (1 Bft) E-SE 112 0 min 0 W/m 15,9 C 23,9 C 6,5 km/h (2 Bft)
18/08/2012 00:20 23,7 C 62 % 1014,1 hPa 0,0 mm 2,5 km/h (1 Bft) E-NE 67 0 min 0 W/m 16,0 C 23,7 C 6,5 km/h (2 Bft)
18/08/2012 00:30 23,5 C 62 % 1014,1 hPa 0,0 mm 2,9 km/h (1 Bft) E-SE 112 0 min 0 W/m 15,8 C 23,5 C 6,1 km/h (2 Bft)
18/08/2012 00:40 23,3 C 62 % 1014,0 hPa 0,0 mm 6,5 km/h (2 Bft) E-SE 112 0 min 0 W/m 15,6 C 23,3 C 6,5 km/h (2 Bft)
18/08/2012 00:50 23,1 C 63 % 1014,0 hPa 0,0 mm 2,2 km/h (1 Bft) E-SE 112 0 min 0 W/m 15,7 C 23,1 C 3,2 km/h (1 Bft)
18/08/2012 01:00 23,1 C 63 % 1014,0 hPa 0,0 mm 5,4 km/h (2 Bft) E 90 0 min 0 W/m 15,7 C 23,1 C 7,2 km/h (2 Bft)
18/08/2012 01:10 23,0 C 63 % 1014,1 hPa 0,0 mm 2,9 km/h (1 Bft) E-SE 112 0 min 0 W/m 15,6 C 23,0 C 7,9 km/h (2 Bft)
18/08/2012 01:20 22,8 C 63 % 1014,0 hPa 0,0 mm 3,6 km/h (1 Bft) E-SE 112 0 min 0 W/m 15,4 C 22,8 C 8,6 km/h (2 Bft)
18/08/2012 01:30 22,6 C 63 % 1014,1 hPa 0,0 mm 1,1 km/h (1 Bft) SE 135 0 min 0 W/m 15,2 C 22,6 C 4,0 km/h (1 Bft)
18/08/2012 01:40 22,4 C 63 % 1014,0 hPa 0,0 mm 3,6 km/h (1 Bft) E-SE 112 0 min 0 W/m 15,0 C 22,4 C 4,3 km/h (1 Bft)
18/08/2012 01:50 22,3 C 63 % 1014,0 hPa 0,0 mm 1,8 km/h (1 Bft) E 90 0 min 0 W/m 14,9 C 22,3 C 4,3 km/h (1 Bft)
18/08/2012 02:00 22,3 C 63 % 1013,9 hPa 0,0 mm 1,8 km/h (1 Bft) E 90 0 min 0 W/m 14,9 C 22,3 C 4,3 km/h (1 Bft)
18/08/2012 02:10 22,1 C 64 % 1014,1 hPa 0,0 mm 0,0 km/h (0 Bft) E-NE 67 0 min 0 W/m 15,0 C 22,1 C 0,0 km/h (0 Bft)
18/08/2012 02:20 21,9 C 63 % 1014,1 hPa 0,0 mm 2,5 km/h (1 Bft) E 90 0 min 0 W/m 14,5 C 21,9 C 3,6 km/h (1 Bft)
18/08/2012 02:30 22,0 C 62 % 1014,1 hPa 0,0 mm 3,2 km/h (1 Bft) E 90 0 min 0 W/m 14,4 C 22,0 C 4,3 km/h (1 Bft)
18/08/2012 02:40 22,0 C 62 % 1014,1 hPa 0,0 mm 0,0 km/h (0 Bft) E 90 0 min 0 W/m 14,4 C 22,0 C 0,0 km/h (0 Bft)
18/08/2012 02:50 21,9 C 62 % 1014,1 hPa 0,0 mm 0,7 km/h (0 Bft) E 90 0 min 0 W/m 14,3 C 21,9 C 3,2 km/h (1 Bft)
18/08/2012 03:02 21,8 C 62 % 1014,2 hPa 0,0 mm 0,0 km/h (0 Bft) E 90 0 min 0 W/m 14,2 C 21,8 C 0,0 km/h (0 Bft)
18/08/2012 03:10 21,6 C 61 % 1014,3 hPa 0,0 mm 2,9 km/h (1 Bft) E 90 0 min 0 W/m 13,7 C 21,6 C 4,3 km/h (1 Bft)
18/08/2012 03:20 21,8 C 61 % 1014,3 hPa 0,0 mm 1,8 km/h (1 Bft) E 90 0 min 0 W/m 13,9 C 21,8 C 4,3 km/h (1 Bft)
18/08/2012 03:30 21,9 C 60 % 1014,3 hPa 0,0 mm 1,4 km/h (1 Bft) E 90 0 min 0 W/m 13,8 C 21,9 C 3,6 km/h (1 Bft)
18/08/2012 03:40 22,1 C 60 % 1014,3 hPa 0,0 mm 0,0 km/h (0 Bft) E 90 0 min 0 W/m 14,0 C 22,1 C 0,0 km/h (0 Bft)
18/08/2012 03:50 22,1 C 59 % 1014,3 hPa 0,0 mm 1,1 km/h (1 Bft) E 90 0 min 0 W/m 13,7 C 22,1 C 1,1 km/h (1 Bft)
18/08/2012 04:00 22,2 C 58 % 1014,3 hPa 0,0 mm 0,7 km/h (0 Bft) E 90 0 min 0 W/m 13,5 C 22,2 C 3,6 km/h (1 Bft)
18/08/2012 04:10 22,3 C 58 % 1014,3 hPa 0,0 mm 2,9 km/h (1 Bft) E 90 0 min 0 W/m 13,6 C 22,3 C 4,0 km/h (1 Bft)
18/08/2012 04:20 22,3 C 58 % 1014,3 hPa 0,0 mm 0,4 km/h (0 Bft) E 90 0 min 0 W/m 13,6 C 22,3 C 4,0 km/h (1 Bft)
18/08/2012 04:30 22,2 C 58 % 1014,2 hPa 0,0 mm 2,5 km/h (1 Bft) E 90 0 min 0 W/m 13,5 C 22,2 C 4,3 km/h (1 Bft)
18/08/2012 04:40 22,1 C 58 % 1014,2 hPa 0,0 mm 0,7 km/h (0 Bft) E 90 0 min 0 W/m 13,4 C 22,1 C 0,7 km/h (0 Bft)
18/08/2012 04:50 22,0 C 58 % 1014,2 hPa 0,0 mm 1,1 km/h (1 Bft) E-SE 112 0 min 0 W/m 13,3 C 22,0 C 3,2 km/h (1 Bft)
18/08/2012 05:00 21,9 C 58 % 1014,2 hPa 0,0 mm 0,4 km/h (0 Bft) E 90 0 min 0 W/m 13,3 C 21,9 C 0,4 km/h (0 Bft)
18/08/2012 05:10 21,8 C 59 % 1014,1 hPa 0,0 mm 0,4 km/h (0 Bft) E 90 0 min 0 W/m 13,4 C 21,8 C 3,2 km/h (1 Bft)
18/08/2012 05:20 21,5 C 58 % 1014,0 hPa 0,0 mm 0,0 km/h (0 Bft) E 90 0 min 0 W/m 12,9 C 21,5 C 0,0 km/h (0 Bft)
18/08/2012 05:30 21,4 C 58 % 1014,0 hPa 0,0 mm 0,0 km/h (0 Bft) E-SE 112 0 min 0 W/m 12,8 C 21,4 C 0,0 km/h (0 Bft)
18/08/2012 05:40 21,3 C 59 % 1014,0 hPa 0,0 mm 0,0 km/h (0 Bft) E-SE 112 0 min 0 W/m 13,0 C 21,3 C 0,0 km/h (0 Bft)
18/08/2012 05:50 21,2 C 58 % 1014,0 hPa 0,0 mm 3,6 km/h (1 Bft) E-SE 112 0 min 0 W/m 12,6 C 21,2 C 4,0 km/h (1 Bft)
18/08/2012 06:00 21,1 C 59 % 1014,0 hPa 0,0 mm 0,0 km/h (0 Bft) E-SE 112 0 min 0 W/m 12,8 C 21,1 C 0,0 km/h (0 Bft)
18/08/2012 06:10 20,8 C 61 % 1014,0 hPa 0,0 mm 0,0 km/h (0 Bft) E-SE 112 0 min 0 W/m 13,0 C 20,8 C 0,0 km/h (0 Bft)
18/08/2012 06:20 20,3 C 62 % 1014,0 hPa 0,0 mm 0,0 km/h (0 Bft) E-SE 112 0 min 0 W/m 12,8 C 20,3 C 0,0 km/h (0 Bft)
18/08/2012 06:30 19,9 C 62 % 1014,0 hPa 0,0 mm 0,0 km/h (0 Bft) E-SE 112 0 min 0 W/m 12,4 C 19,9 C 0,0 km/h (0 Bft)
18/08/2012 06:40 19,7 C 63 % 1014,1 hPa 0,0 mm 0,0 km/h (0 Bft) E-SE 112 0 min 0 W/m 12,5 C 19,7 C 0,0 km/h (0 Bft)
18/08/2012 06:50 19,4 C 65 % 1014,1 hPa 0,0 mm 0,0 km/h (0 Bft) SO 225 0 min 0 W/m 12,6 C 19,4 C 0,0 km/h (0 Bft)
18/08/2012 07:00 19,0 C 65 % 1014,2 hPa 0,0 mm 0,0 km/h (0 Bft) SO 225 0 min 0 W/m 12,3 C 19,0 C 0,0 km/h (0 Bft)
18/08/2012 07:10 18,8 C 65 % 1014,2 hPa 0,0 mm 0,0 km/h (0 Bft) SO 225 0 min 0 W/m 12,1 C 18,8 C 0,0 km/h (0 Bft)
18/08/2012 07:20 18,8 C 66 % 1014,2 hPa 0,0 mm 1,8 km/h (1 Bft) E-NE 67 0 min 0 W/m 12,3 C 18,8 C 2,9 km/h (1 Bft)
18/08/2012 07:30 18,8 C 67 % 1014,3 hPa 0,0 mm 0,0 km/h (0 Bft) NE 45 0 min 0 W/m 12,5 C 18,8 C 0,0 km/h (0 Bft)
18/08/2012 07:40 18,8 C 68 % 1014,3 hPa 0,0 mm 0,0 km/h (0 Bft) NE 45 0 min 0 W/m 12,8 C 18,8 C 0,0 km/h (0 Bft)
18/08/2012 07:50 18,9 C 69 % 1014,2 hPa 0,0 mm 0,0 km/h (0 Bft) NE 45 0 min 0 W/m 13,1 C 18,9 C 0,0 km/h (0 Bft)
18/08/2012 08:00 19,2 C 69 % 1014,3 hPa 0,0 mm 0,0 km/h (0 Bft) NE 45 0 min 0 W/m 13,4 C 19,2 C 0,0 km/h (0 Bft)
18/08/2012 08:10 19,8 C 69 % 1014,2 hPa 0,0 mm 0,4 km/h (0 Bft) NE 45 0 min 0 W/m 13,9 C 19,8 C 0,4 km/h (0 Bft)
18/08/2012 08:20 20,4 C 68 % 1014,2 hPa 0,0 mm 0,0 km/h (0 Bft) E-NE 67 0 min 0 W/m 14,3 C 20,4 C 0,0 km/h (0 Bft)
18/08/2012 08:30 21,1 C 66 % 1014,3 hPa 0,0 mm 0,0 km/h (0 Bft) E 90 0 min 0 W/m 14,5 C 21,1 C 0,0 km/h (0 Bft)
18/08/2012 08:40 21,8 C 65 % 1014,2 hPa 0,0 mm 0,0 km/h (0 Bft) E 90 0 min 0 W/m 14,9 C 21,8 C 0,0 km/h (0 Bft)
18/08/2012 08:50 22,4 C 64 % 1014,2 hPa 0,0 mm 0,0 km/h (0 Bft) E 90 0 min 0 W/m 15,2 C 22,4 C 0,0 km/h (0 Bft)
18/08/2012 09:00 23,2 C 60 % 1014,2 hPa 0,0 mm 0,7 km/h (0 Bft) E-SE 112 0 min 0 W/m 15,0 C 23,2 C 3,2 km/h (1 Bft)
18/08/2012 09:10 23,9 C 58 % 1014,3 hPa 0,0 mm 0,0 km/h (0 Bft) SE 135 0 min 0 W/m 15,1 C 23,9 C 0,0 km/h (0 Bft)
18/08/2012 09:20 24,8 C 57 % 1014,4 hPa 0,0 mm 0,0 km/h (0 Bft) SE 135 0 min 0 W/m 15,7 C 24,8 C 0,0 km/h (0 Bft)
18/08/2012 09:30 25,6 C 57 % 1014,3 hPa 0,0 mm 0,0 km/h (0 Bft) E 90 0 min 0 W/m 16,4 C 25,6 C 0,0 km/h (0 Bft)
18/08/2012 09:40 26,7 C 55 % 1014,4 hPa 0,0 mm 0,0 km/h (0 Bft) E 90 0 min 0 W/m 16,9 C 26,7 C 0,0 km/h (0 Bft)
18/08/2012 09:50 27,5 C 52 % 1014,4 hPa 0,0 mm 0,0 km/h (0 Bft) N 360 0 min 0 W/m 16,7 C 27,5 C 0,0 km/h (0 Bft)
18/08/2012 10:00 28,2 C 50 % 1014,3 hPa 0,0 mm 0,0 km/h (0 Bft) E-NE 67 0 min 0 W/m 16,8 C 28,2 C 0,0 km/h (0 Bft)
18/08/2012 10:10 29,2 C 49 % 1014,4 hPa 0,0 mm 1,1 km/h (1 Bft) E-NE 67 0 min 0 W/m 17,4 C 29,2 C 2,9 km/h (1 Bft)
18/08/2012 10:20 30,1 C 47 % 1014,5 hPa 0,0 mm 0,7 km/h (0 Bft) E-NE 67 0 min 0 W/m 17,5 C 30,1 C 0,7 km/h (0 Bft)
18/08/2012 10:30 30,8 C 46 % 1014,6 hPa 0,0 mm 0,0 km/h (0 Bft) NE 45 0 min 0 W/m 17,8 C 30,8 C 0,0 km/h (0 Bft)
18/08/2012 10:40 31,6 C 45 % 1014,8 hPa 0,0 mm 1,4 km/h (1 Bft) O 270 0 min 0 W/m 18,2 C 31,6 C 1,4 km/h (1 Bft)
18/08/2012 10:50 32,1 C 43 % 1015,0 hPa 0,0 mm 2,5 km/h (1 Bft) O 270 0 min 0 W/m 17,9 C 32,1 C 4,3 km/h (1 Bft)
18/08/2012 11:00 32,7 C 43 % 1015,0 hPa 0,0 mm 0,0 km/h (0 Bft) O 270 0 min 0 W/m 18,5 C 32,7 C 3,2 km/h (1 Bft)
18/08/2012 11:10 33,8 C 41 % 1015,1 hPa 0,0 mm 0,0 km/h (0 Bft) O 270 0 min 0 W/m 18,7 C 33,8 C 0,0 km/h (0 Bft)
18/08/2012 11:20 34,6 C 39 % 1015,0 hPa 0,0 mm 0,4 km/h (0 Bft) O-SO 247 0 min 0 W/m 18,6 C 34,6 C 3,6 km/h (1 Bft)
18/08/2012 11:30 35,4 C 36 % 1015,0 hPa 0,0 mm 0,4 km/h (0 Bft) O-SO 247 0 min 0 W/m 18,0 C 35,4 C 4,0 km/h (1 Bft)
18/08/2012 11:40 35,9 C 36 % 1014,9 hPa 0,0 mm 0,0 km/h (0 Bft) O-SO 247 0 min 0 W/m 18,4 C 35,9 C 0,0 km/h (0 Bft)
18/08/2012 11:50 36,6 C 34 % 1014,9 hPa 0,0 mm 0,0 km/h (0 Bft) S-SE 157 0 min 0 W/m 18,1 C 36,6 C 0,0 km/h (0 Bft)
18/08/2012 12:00 37,2 C 31 % 1014,9 hPa 0,0 mm 3,2 km/h (1 Bft) S 180 0 min 0 W/m 17,2 C 37,2 C 3,2 km/h (1 Bft)
18/08/2012 12:10 37,3 C 28 % 1014,9 hPa 0,0 mm 0,4 km/h (0 Bft) SO 225 0 min 0 W/m 15,7 C 37,3 C 2,9 km/h (1 Bft)
18/08/2012 12:20 37,3 C 27 % 1014,9 hPa 0,0 mm 6,5 km/h (2 Bft) S-SO 202 0 min 0 W/m 15,1 C 37,3 C 12,6 km/h (3 Bft)
18/08/2012 12:30 37,1 C 28 % 1014,9 hPa 0,0 mm 5,0 km/h (1 Bft) S 180 0 min 0 W/m 15,5 C 37,1 C 6,5 km/h (2 Bft)
18/08/2012 12:40 37,2 C 28 % 1014,9 hPa 0,0 mm 1,8 km/h (1 Bft) S-SO 202 0 min 0 W/m 15,6 C 37,2 C 2,9 km/h (1 Bft)
18/08/2012 12:50 37,3 C 28 % 1014,8 hPa 0,0 mm 2,5 km/h (1 Bft) SO 225 0 min 0 W/m 15,7 C 37,3 C 4,3 km/h (1 Bft)
18/08/2012 13:00 37,3 C 28 % 1014,9 hPa 0,0 mm 7,2 km/h (2 Bft) SO 225 0 min 0 W/m 15,7 C 37,3 C 12,2 km/h (2 Bft)
18/08/2012 13:10 37,1 C 28 % 1014,8 hPa 0,0 mm 5,8 km/h (2 Bft) S-SE 157 0 min 0 W/m 15,5 C 37,1 C 5,8 km/h (2 Bft)
18/08/2012 13:20 37,2 C 29 % 1014,7 hPa 0,0 mm 4,0 km/h (1 Bft) S-SO 202 0 min 0 W/m 16,1 C 37,2 C 7,2 km/h (2 Bft)
18/08/2012 13:30 37,3 C 28 % 1014,7 hPa 0,0 mm 6,1 km/h (2 Bft) S-SO 202 0 min 0 W/m 15,7 C 37,3 C 9,0 km/h (2 Bft)
18/08/2012 13:40 37,7 C 29 % 1014,6 hPa 0,0 mm 4,0 km/h (1 Bft) S-SO 202 0 min 0 W/m 16,6 C 37,7 C 6,5 km/h (2 Bft)
18/08/2012 13:50 37,8 C 28 % 1014,5 hPa 0,0 mm 5,8 km/h (2 Bft) S-SO 202 0 min 0 W/m 16,1 C 37,8 C 10,4 km/h (2 Bft)
18/08/2012 14:00 37,9 C 28 % 1014,5 hPa 0,0 mm 4,3 km/h (1 Bft) E-NE 67 0 min 0 W/m 16,2 C 37,9 C 7,9 km/h (2 Bft)
18/08/2012 14:10 38,2 C 29 % 1014,5 hPa 0,0 mm 0,0 km/h (0 Bft) S-SO 202 0 min 0 W/m 17,0 C 38,2 C 0,0 km/h (0 Bft)
18/08/2012 14:20 38,3 C 29 % 1014,3 hPa 0,0 mm 3,2 km/h (1 Bft) SO 225 0 min 0 W/m 17,1 C 38,3 C 4,3 km/h (1 Bft)
18/08/2012 14:30 38,4 C 29 % 1014,2 hPa 0,0 mm 3,6 km/h (1 Bft) S 180 0 min 0 W/m 17,2 C 38,4 C 10,4 km/h (2 Bft)
18/08/2012 14:40 38,7 C 28 % 1014,2 hPa 0,0 mm 5,0 km/h (1 Bft) SE 135 0 min 0 W/m 16,9 C 38,7 C 7,9 km/h (2 Bft)
18/08/2012 14:50 39,0 C 29 % 1014,2 hPa 0,0 mm 0,7 km/h (0 Bft) S-SO 202 0 min 0 W/m 17,7 C 39,0 C 3,2 km/h (1 Bft)
18/08/2012 15:00 39,1 C 25 % 1014,1 hPa 0,0 mm 6,8 km/h (2 Bft) S 180 0 min 0 W/m 15,4 C 39,1 C 6,8 km/h (2 Bft)
18/08/2012 15:10 39,1 C 25 % 1014,1 hPa 0,0 mm 0,7 km/h (0 Bft) O-SO 247 0 min 0 W/m 15,4 C 39,1 C 3,2 km/h (1 Bft)
18/08/2012 15:20 39,3 C 25 % 1014,1 hPa 0,0 mm 5,0 km/h (1 Bft) O-SO 247 0 min 0 W/m 15,6 C 39,3 C 12,2 km/h (2 Bft)
18/08/2012 15:30 39,3 C 25 % 1014,1 hPa 0,0 mm 5,8 km/h (2 Bft) O-SO 247 0 min 0 W/m 15,6 C 39,3 C 7,6 km/h (2 Bft)
18/08/2012 15:40 39,3 C 26 % 1014,0 hPa 0,0 mm 5,8 km/h (2 Bft) S-SO 202 0 min 0 W/m 16,2 C 39,3 C 8,3 km/h (2 Bft)
18/08/2012 15:50 39,1 C 25 % 1014,0 hPa 0,0 mm 9,4 km/h (2 Bft) S-SO 202 0 min 0 W/m 15,4 C 39,1 C 15,8 km/h (3 Bft)
18/08/2012 16:00 38,9 C 28 % 1014,0 hPa 0,0 mm 12,6 km/h (3 Bft) SO 225 0 min 0 W/m 17,0 C 38,9 C 18,4 km/h (3 Bft)
18/08/2012 16:10 38,7 C 28 % 1014,0 hPa 0,0 mm 4,3 km/h (1 Bft) SO 225 0 min 0 W/m 16,9 C 38,7 C 4,7 km/h (1 Bft)
18/08/2012 16:20 38,6 C 29 % 1013,9 hPa 0,0 mm 5,8 km/h (2 Bft) SO 225 0 min 0 W/m 17,3 C 38,6 C 9,4 km/h (2 Bft)
18/08/2012 16:30 38,4 C 29 % 1014,0 hPa 0,0 mm 6,8 km/h (2 Bft) S-SO 202 0 min 0 W/m 17,2 C 38,4 C 10,8 km/h (2 Bft)
18/08/2012 16:40 38,3 C 29 % 1014,1 hPa 0,0 mm 6,8 km/h (2 Bft) S-SO 202 0 min 0 W/m 17,1 C 38,3 C 9,7 km/h (2 Bft)
18/08/2012 16:50 38,1 C 30 % 1014,1 hPa 0,0 mm 4,0 km/h (1 Bft) SO 225 0 min 0 W/m 17,4 C 38,1 C 9,7 km/h (2 Bft)
18/08/2012 17:00 38,2 C 29 % 1014,1 hPa 0,0 mm 5,4 km/h (2 Bft) S-SE 157 0 min 0 W/m 17,0 C 38,2 C 11,5 km/h (2 Bft)
18/08/2012 17:10 38,2 C 30 % 1014,1 hPa 0,0 mm 2,5 km/h (1 Bft) O-SO 247 0 min 0 W/m 17,5 C 38,2 C 6,8 km/h (2 Bft)
18/08/2012 17:20 38,1 C 28 % 1014,1 hPa 0,0 mm 4,3 km/h (1 Bft) S-SO 202 0 min 0 W/m 16,4 C 38,1 C 7,9 km/h (2 Bft)
18/08/2012 17:30 38,1 C 29 % 1014,1 hPa 0,0 mm 4,3 km/h (1 Bft) S-SO 202 0 min 0 W/m 16,9 C 38,1 C 10,4 km/h (2 Bft)
18/08/2012 17:40 37,9 C 30 % 1014,1 hPa 0,0 mm 4,3 km/h (1 Bft) S-SO 202 0 min 0 W/m 17,3 C 37,9 C 7,6 km/h (2 Bft)
18/08/2012 17:50 37,9 C 28 % 1014,2 hPa 0,0 mm 3,6 km/h (1 Bft) SO 225 0 min 0 W/m 16,2 C 37,9 C 10,8 km/h (2 Bft)
18/08/2012 18:00 37,9 C 30 % 1014,1 hPa 0,0 mm 2,9 km/h (1 Bft) S-SO 202 0 min 0 W/m 17,3 C 37,9 C 4,3 km/h (1 Bft)
18/08/2012 18:10 37,8 C 28 % 1014,1 hPa 0,0 mm 2,5 km/h (1 Bft) SO 225 0 min 0 W/m 16,1 C 37,8 C 6,8 km/h (2 Bft)
18/08/2012 18:20 37,8 C 28 % 1014,2 hPa 0,0 mm 4,3 km/h (1 Bft) SO 225 0 min 0 W/m 16,1 C 37,8 C 4,3 km/h (1 Bft)
18/08/2012 18:30 37,5 C 29 % 1014,1 hPa 0,0 mm 4,7 km/h (1 Bft) SO 225 0 min 0 W/m 16,4 C 37,5 C 9,7 km/h (2 Bft)
18/08/2012 18:40 37,3 C 30 % 1014,0 hPa 0,0 mm 3,2 km/h (1 Bft) SO 225 0 min 0 W/m 16,8 C 37,3 C 4,3 km/h (1 Bft)
18/08/2012 18:50 37,1 C 30 % 1014,0 hPa 0,0 mm 5,4 km/h (2 Bft) SO 225 0 min 0 W/m 16,6 C 37,1 C 9,7 km/h (2 Bft)
18/08/2012 19:00 36,9 C 31 % 1014,0 hPa 0,0 mm 1,4 km/h (1 Bft) SO 225 0 min 0 W/m 16,9 C 36,9 C 4,0 km/h (1 Bft)
18/08/2012 19:10 36,6 C 31 % 1014,0 hPa 0,0 mm 3,2 km/h (1 Bft) SO 225 0 min 0 W/m 16,7 C 36,6 C 3,2 km/h (1 Bft)
18/08/2012 19:20 36,4 C 32 % 1014,0 hPa 0,0 mm 0,0 km/h (0 Bft) S-SO 202 0 min 0 W/m 17,0 C 36,4 C 0,0 km/h (0 Bft)
18/08/2012 19:30 36,1 C 33 % 1014,1 hPa 0,0 mm 3,2 km/h (1 Bft) S 180 0 min 0 W/m 17,2 C 36,1 C 7,2 km/h (2 Bft)
18/08/2012 19:40 35,6 C 34 % 1014,1 hPa 0,0 mm 2,9 km/h (1 Bft) SO 225 0 min 0 W/m 17,3 C 35,6 C 4,3 km/h (1 Bft)
18/08/2012 19:50 35,2 C 35 % 1014,2 hPa 0,0 mm 1,8 km/h (1 Bft) S-SO 202 0 min 0 W/m 17,4 C 35,2 C 3,6 km/h (1 Bft)
18/08/2012 20:00 34,6 C 36 % 1014,1 hPa 0,0 mm 1,4 km/h (1 Bft) S-SO 202 0 min 0 W/m 17,3 C 34,6 C 1,4 km/h (1 Bft)
18/08/2012 20:10 34,1 C 36 % 1014,2 hPa 0,0 mm 0,0 km/h (0 Bft) S-SO 202 0 min 0 W/m 16,9 C 34,1 C 0,0 km/h (0 Bft)
18/08/2012 20:20 33,4 C 37 % 1014,4 hPa 0,0 mm 0,7 km/h (0 Bft) S-SO 202 0 min 0 W/m 16,7 C 33,4 C 4,0 km/h (1 Bft)
18/08/2012 20:30 32,8 C 40 % 1014,5 hPa 0,0 mm 0,0 km/h (0 Bft) S-SO 202 0 min 0 W/m 17,4 C 32,8 C 0,0 km/h (0 Bft)
18/08/2012 20:40 32,1 C 41 % 1014,4 hPa 0,0 mm 0,0 km/h (0 Bft) S-SO 202 0 min 0 W/m 17,2 C 32,1 C 0,0 km/h (0 Bft)
18/08/2012 20:50 31,5 C 42 % 1014,5 hPa 0,0 mm 2,2 km/h (1 Bft) S-SO 202 0 min 0 W/m 17,0 C 31,5 C 4,0 km/h (1 Bft)
18/08/2012 21:00 30,8 C 43 % 1014,6 hPa 0,0 mm 0,0 km/h (0 Bft) S-SO 202 0 min 0 W/m 16,7 C 30,8 C 3,2 km/h (1 Bft)
18/08/2012 21:10 30,3 C 44 % 1014,6 hPa 0,0 mm 0,0 km/h (0 Bft) SO 225 0 min 0 W/m 16,7 C 30,3 C 0,0 km/h (0 Bft)
18/08/2012 21:20 29,7 C 45 % 1014,8 hPa 0,0 mm 0,0 km/h (0 Bft) SO 225 0 min 0 W/m 16,5 C 29,7 C 0,0 km/h (0 Bft)
18/08/2012 21:30 29,2 C 45 % 1014,9 hPa 0,0 mm 0,0 km/h (0 Bft) SO 225 0 min 0 W/m 16,0 C 29,2 C 0,0 km/h (0 Bft)
18/08/2012 21:40 28,7 C 46 % 1015,0 hPa 0,0 mm 0,0 km/h (0 Bft) SO 225 0 min 0 W/m 15,9 C 28,7 C 0,0 km/h (0 Bft)
18/08/2012 21:50 28,2 C 48 % 1015,1 hPa 0,0 mm 0,0 km/h (0 Bft) SO 225 0 min 0 W/m 16,1 C 28,2 C 0,0 km/h (0 Bft)
18/08/2012 22:00 27,8 C 48 % 1015,3 hPa 0,0 mm 0,0 km/h (0 Bft) SO 225 0 min 0 W/m 15,8 C 27,8 C 0,0 km/h (0 Bft)
18/08/2012 22:10 27,4 C 50 % 1015,5 hPa 0,0 mm 0,0 km/h (0 Bft) SO 225 0 min 0 W/m 16,0 C 27,4 C 0,0 km/h (0 Bft)
18/08/2012 22:20 26,9 C 50 % 1015,6 hPa 0,0 mm 0,0 km/h (0 Bft) SO 225 0 min 0 W/m 15,6 C 26,9 C 0,0 km/h (0 Bft)
18/08/2012 22:30 26,6 C 51 % 1015,6 hPa 0,0 mm 0,0 km/h (0 Bft) SO 225 0 min 0 W/m 15,6 C 26,6 C 0,0 km/h (0 Bft)
18/08/2012 22:40 26,4 C 52 % 1015,7 hPa 0,0 mm 0,0 km/h (0 Bft) SO 225 0 min 0 W/m 15,7 C 26,4 C 0,0 km/h (0 Bft)
18/08/2012 22:50 26,1 C 54 % 1015,7 hPa 0,0 mm 0,0 km/h (0 Bft) O-SO 247 0 min 0 W/m 16,0 C 26,1 C 0,0 km/h (0 Bft)
_ Min-Heure 07:40 15:50 16:20 - 22:50 - - - - 07:10 07:40 22:50
Minimum _ 18,8 C 25 % 1013,9 hPa - 0,0 km/h (0 Bft) - - - - 12,1 C 18,8 C 0,0 km/h (0 Bft)
_ Max-Heure 15:40 08:10 22:50 22:50 16:00 - - 22:50 22:50 11:10 15:40 16:00
Maximum _ 39,3 C 69 % 1015,7 hPa 0,0 mm 12,6 km/h
SO (3 Bft)
- - 0 min 0 W/m 18,7 C 39,3 C 18,4 km/h
SO (3 Bft)
Moyenne _ 29,4 C 46 % 1014,4 hPa #0,0 mm 2,1 km/h (1 Bft) SO - #0 min. 0 W/m 15,6 C 29,4 C 3,7 km/h (1 Bft)
Saint Bonnet de Bellac- Haute Vienne - France